Klamath Falls, OR

9:40 PM PST on December 14, 2017 (GMT -0800)
Klamath Falls International

Weather History for KLMT - May, 2013

Change the Weather History Date:

Saturday, May 4, 2013

  Actual Average Record
Temperature  
Mean Temperature 57 °F 48 °F  
Max Temperature 69 °F 62 °F 84 °F (1992)
Min Temperature 45 °F 34 °F 22 °F (1985)
Degree Days  
Heating Degree Days 8 17  
Month to date heating degree days 46 69  
Since 1 July heating degree days 6110 6388  
Cooling Degree Days 0 0  
Month to date cooling degree days 0 0  
Year to date cooling degree days 0 0  
Growing Degree Days 7 (Base 50)    
Moisture  
Dew Point 28 °F    
Average Humidity 35    
Maximum Humidity 50    
Minimum Humidity 21    
Precipitation  
Precipitation T in 0.07 in 0.56 in (1956)
Month to date precipitation T 0.28  
Year to date precipitation 2.53 6.69  
Sea Level Pressure  
Sea Level Pressure 29.90 in    
Wind  
Wind Speed 15 mph (NE)    
Max Wind Speed 32 mph    
Max Gust Speed 43 mph    
Visibility 10 miles    
Events Rain    
T = Trace of Precipitation, MM = Missing Value Source: NWS Daily Summary

Daily Weather History Graph

Daily Weather History Graph

Search for Another Location

Airport or City:

Trip Planner

Search our weather history database for the weather conditions in past years. The results will help you decide how hot, cold, wet, or windy it might be!

Date:

Astronomy

May. 04, 2013 Rise Set
Actual Time 5:58 AM PDT 8:09 PM PDT
Civil Twilight 5:27 AM PDT 8:40 PM PDT
Nautical Twilight 4:49 AM PDT 9:18 PM PDT
Astronomical Twilight 4:07 AM PDT 10:01 PM PDT
Moon 3:05 AM PDT (5/4) 3:08 PM PDT (5/4)
Length of Visible Light 15h 13m
Length of Day
14h 11m
Waning Crescent, 26% of the Moon is Illuminated
May 4
Waning Crescent
May 9
New
May 17
First Quarter
May 24
Full
May 31
Last Quarter

Hourly Weather History & Observations

Time (PDT) Temp. Windchill Dew Point Humidity Pressure Visibility Wind Dir Wind Speed Gust Speed Precip Events Conditions
12:53 AM 55.0 °F - 26.1 °F 33% 30.05 in 10.0 mi NNE 15.0 mph - N/A   Clear
1:53 AM 51.1 °F - 25.0 °F 36% 30.05 in 10.0 mi North 10.4 mph - N/A   Clear
2:53 AM 52.0 °F - 24.1 °F 34% 30.04 in 9.0 mi NNE 13.8 mph - N/A   Clear
3:53 AM 48.9 °F - 25.0 °F 39% 30.02 in 10.0 mi NNE 9.2 mph - N/A   Clear
4:53 AM 48.9 °F - 25.0 °F 39% 30.01 in 10.0 mi North 11.5 mph - N/A   Clear
5:53 AM 46.0 °F 41.9 °F 25.0 °F 44% 30.00 in 10.0 mi NE 8.1 mph - N/A   Clear
6:53 AM 50.0 °F - 26.1 °F 39% 29.99 in 10.0 mi NE 8.1 mph - N/A   Clear
7:53 AM 55.0 °F - 28.0 °F 35% 29.99 in 10.0 mi ENE 5.8 mph - N/A   Clear
8:53 AM 57.0 °F - 28.9 °F 34% 29.98 in 10.0 mi NNE 13.8 mph 18.4 mph N/A   Partly Cloudy
9:53 AM 59.0 °F - 30.0 °F 33% 29.94 in 10.0 mi ENE 17.3 mph 28.8 mph N/A   Clear
10:53 AM 62.1 °F - 28.0 °F 28% 29.90 in 10.0 mi ENE 18.4 mph 29.9 mph N/A   Partly Cloudy
11:53 AM 64.0 °F - 25.0 °F 23% 29.88 in 10.0 mi ENE 20.7 mph 32.2 mph N/A   Partly Cloudy
12:53 PM 66.0 °F - 26.1 °F 22% 29.84 in 10.0 mi ENE 16.1 mph 27.6 mph N/A   Partly Cloudy
1:53 PM 68.0 °F - 26.1 °F 21% 29.83 in 10.0 mi East 19.6 mph 27.6 mph N/A   Clear
2:53 PM 64.9 °F - 26.1 °F 23% 29.82 in 10.0 mi East 16.1 mph 23.0 mph N/A   Scattered Clouds
3:53 PM 66.0 °F - 27.0 °F 23% 29.81 in 10.0 mi ENE 15.0 mph 24.2 mph N/A   Scattered Clouds
4:53 PM 64.0 °F - 27.0 °F 25% 29.80 in 10.0 mi NE 17.3 mph 21.9 mph N/A   Scattered Clouds
5:53 PM 61.0 °F - 33.1 °F 35% 29.81 in 7.0 mi East 27.6 mph 41.4 mph 0.00 in Rain Light Rain
6:00 PM 57.2 °F - 35.6 °F 44% 29.88 in 7.0 mi East 18.4 mph 35.7 mph 0.00 in Rain Light Rain
6:53 PM - - - N/A% 29.87 in 10.0 mi North - - 0.00 in   Mostly Cloudy
7:53 PM 57.0 °F - 32.0 °F 39% 29.79 in 10.0 mi ENE 17.3 mph 23.0 mph N/A   Scattered Clouds
8:53 PM 55.9 °F - 32.0 °F 40% 29.78 in 10.0 mi ENE 19.6 mph 28.8 mph N/A   Clear
9:53 PM 54.0 °F - 34.0 °F 47% 29.80 in 10.0 mi ENE 20.7 mph 27.6 mph N/A   Clear
10:53 PM 54.0 °F - 33.1 °F 45% 29.78 in 10.0 mi ENE 12.7 mph 21.9 mph N/A   Clear
11:53 PM 52.0 °F - 34.0 °F 50% 29.79 in 10.0 mi East 6.9 mph - N/A   Clear